Hourly Weather Adelaide

Today, 13 August, Thursday

Time Temperature Precipitation Wind Pressure Humidity
00:00 +12°C° 0 mm 5 mps 752 mmHg 93%
01:00 +12°C° 0 mm 5 mps 752 mmHg 94%
02:00 +12°C° 0 mm 5 mps 752 mmHg 94%
03:00 +12°C° 0 mm 5 mps 752 mmHg 95%
04:00 +12°C° 0 mm 5 mps 752 mmHg 95%
05:00 +10°C° 0 mm 5 mps 752 mmHg 95%
06:00 +10°C° 0 mm 5 mps 752 mmHg 95%
07:00 +12°C° 0 mm 5 mps 753 mmHg 94%
08:00 +12°C° 0 mm 5 mps 753 mmHg 93%
09:00 +12°C° 0 mm 5 mps 753 mmHg 91%
10:00 +13°C° 0.1 mm 5 mps 753 mmHg 88%
11:00 +14°C° 0.1 mm 5 mps 753 mmHg 85%
12:00 +14°C° 0.1 mm 6 mps 753 mmHg 82%
13:00 +14°C° 0.4 mm 6 mps 752 mmHg 81%
14:00 +15°C° 0.4 mm 6 mps 752 mmHg 80%
15:00 +15°C° 0.4 mm 6 mps 752 mmHg 79%
16:00 +14°C° 0.3 mm 6 mps 752 mmHg 81%
17:00 +13°C° 0.3 mm 5 mps 752 mmHg 83%
18:00 +13°C° 0.3 mm 5 mps 752 mmHg 85%
19:00 +13°C° 0.3 mm 5 mps 753 mmHg 86%
20:00 +12°C° 0.3 mm 4 mps 753 mmHg 87%
21:00 +12°C° 0.3 mm 4 mps 753 mmHg 89%
22:00 +12°C° 0.1 mm 4 mps 753 mmHg 90%
23:00 +11°C° 0.1 mm 3 mps 753 mmHg 91%

Tomorrow, 14 August, Friday

Time Temperature Precipitation Wind Pressure Humidity
00:00 +11°C° 0.1 mm 3 mps 752 mmHg 92%
01:00 +10°C° 0 mm 3 mps 752 mmHg 93%
02:00 +10°C° 0 mm 4 mps 752 mmHg 93%
03:00 +10°C° 0 mm 4 mps 752 mmHg 93%
04:00 +10°C° 0 mm 4 mps 752 mmHg 93%
05:00 +10°C° 0 mm 4 mps 752 mmHg 92%
06:00 +8°C° 0 mm 4 mps 753 mmHg 92%
07:00 +10°C° 0 mm 4 mps 753 mmHg 90%
08:00 +10°C° 0 mm 5 mps 753 mmHg 88%
09:00 +12°C° 0 mm 5 mps 753 mmHg 85%
10:00 +13°C° 0 mm 5 mps 753 mmHg 81%
11:00 +14°C° 0 mm 5 mps 753 mmHg 76%
12:00 +15°C° 0 mm 5 mps 753 mmHg 71%
13:00 +15°C° 0.1 mm 4 mps 753 mmHg 72%
14:00 +15°C° 0.1 mm 4 mps 752 mmHg 73%
15:00 +15°C° 0.1 mm 4 mps 752 mmHg 73%
16:00 +14°C° 0.1 mm 3 mps 753 mmHg 78%
17:00 +13°C° 0.1 mm 3 mps 753 mmHg 82%
18:00 +13°C° 0.1 mm 2 mps 754 mmHg 87%
19:00 +13°C° 0.2 mm 2 mps 754 mmHg 89%
20:00 +12°C° 0.2 mm 2 mps 755 mmHg 90%
21:00 +12°C° 0.2 mm 2 mps 755 mmHg 92%
22:00 +12°C° 0 mm 2 mps 755 mmHg 93%
23:00 +10°C° 0 mm 2 mps 755 mmHg 94%

Day after tomorrow, 15 August, Saturday

Time Temperature Precipitation Wind Pressure Humidity
00:00 +10°C° 0 mm 2 mps 755 mmHg 95%
01:00 +10°C° 0 mm 2 mps 755 mmHg 95%
02:00 +10°C° 0 mm 2 mps 755 mmHg 94%
03:00 +10°C° 0 mm 2 mps 756 mmHg 94%
04:00 +10°C° 0 mm 2 mps 756 mmHg 94%
05:00 +10°C° 0 mm 2 mps 756 mmHg 94%
06:00 +10°C° 0 mm 2 mps 757 mmHg 94%
07:00 +12°C° 0.1 mm 2 mps 757 mmHg 91%
08:00 +13°C° 0.1 mm 2 mps 758 mmHg 87%
09:00 +13°C° 0.1 mm 2 mps 758 mmHg 84%
10:00 +14°C° 0.1 mm 2 mps 758 mmHg 80%
11:00 +13°C° 0.1 mm 3 mps 758 mmHg 77%
12:00 +14°C° 0.1 mm 3 mps 758 mmHg 73%
13:00 +14°C° 0 mm 3 mps 758 mmHg 71%
14:00 +14°C° 0 mm 3 mps 757 mmHg 69%
15:00 +14°C° 0 mm 3 mps 757 mmHg 66%
16:00 +14°C° 0 mm 2 mps 758 mmHg 74%
17:00 +12°C° 0 mm 2 mps 758 mmHg 81%
18:00 +10°C° 0 mm 2 mps 759 mmHg 88%
19:00 +10°C° 0 mm 2 mps 759 mmHg 89%
20:00 +10°C° 0 mm 2 mps 759 mmHg 90%
21:00 +11°C° 0 mm 1 mps 760 mmHg 91%
22:00 +10°C° 0 mm 1 mps 760 mmHg 91%
23:00 +10°C° 0 mm 1 mps 760 mmHg 91%

16 August, Sunday

Time Temperature Precipitation Wind Pressure Humidity
00:00 +10°C° 0 mm 1 mps 760 mmHg 90%
01:00 +10°C° 0 mm 1 mps 759 mmHg 91%
02:00 +9°C° 0 mm 1 mps 759 mmHg 92%
03:00 +9°C° 0 mm 1 mps 759 mmHg 93%
04:00 +9°C° 0 mm 1 mps 759 mmHg 93%
05:00 +9°C° 0 mm 1 mps 759 mmHg 94%
06:00 +9°C° 0 mm 1 mps 759 mmHg 94%
07:00 +9°C° 0 mm 2 mps 760 mmHg 92%
08:00 +10°C° 0 mm 2 mps 760 mmHg 89%
09:00 +12°C° 0 mm 2 mps 760 mmHg 87%
10:00 +12°C° 0 mm 2 mps 759 mmHg 81%
11:00 +12°C° 0 mm 3 mps 759 mmHg 75%
12:00 +13°C° 0 mm 3 mps 758 mmHg 68%
13:00 +14°C° 0 mm 2 mps 758 mmHg 67%
14:00 +14°C° 0 mm 2 mps 757 mmHg 65%
15:00 +14°C° 0 mm 2 mps 757 mmHg 63%
16:00 +13°C° 0 mm 2 mps 757 mmHg 68%
17:00 +12°C° 0 mm 1 mps 757 mmHg 72%
18:00 +11°C° 0 mm 1 mps 757 mmHg 77%
19:00 +10°C° 0 mm 1 mps 757 mmHg 77%
20:00 +9°C° 0 mm 2 mps 757 mmHg 78%
21:00 +9°C° 0 mm 2 mps 757 mmHg 78%
22:00 +9°C° 0 mm 2 mps 757 mmHg 77%
23:00 +9°C° 0 mm 2 mps 756 mmHg 76%

17 August, Monday

Time Temperature Precipitation Wind Pressure Humidity
00:00 +9°C° 0 mm 3 mps 756 mmHg 75%
01:00 +9°C° 0 mm 3 mps 755 mmHg 75%
02:00 +9°C° 0 mm 3 mps 754 mmHg 75%
03:00 +9°C° 0 mm 3 mps 754 mmHg 75%
04:00 +8°C° 0 mm 4 mps 754 mmHg 73%
05:00 +8°C° 0 mm 4 mps 754 mmHg 71%
06:00 +10°C° 0 mm 4 mps 753 mmHg 68%
07:00 +11°C° 0 mm 4 mps 753 mmHg 64%
08:00 +13°C° 0 mm 5 mps 753 mmHg 59%
09:00 +15°C° 0 mm 6 mps 753 mmHg 54%
10:00 +14°C° 0.3 mm 6 mps 753 mmHg 62%
11:00 +14°C° 0.3 mm 6 mps 752 mmHg 70%
12:00 +12°C° 0.3 mm 7 mps 751 mmHg 78%
13:00 +13°C° 0.2 mm 6 mps 751 mmHg 77%
14:00 +14°C° 0.2 mm 6 mps 750 mmHg 76%
15:00 +14°C° 0.2 mm 5 mps 750 mmHg 74%
16:00 +13°C° 0 mm 4 mps 750 mmHg 79%
17:00 +12°C° 0 mm 3 mps 750 mmHg 85%
18:00 +12°C° 0 mm 2 mps 751 mmHg 90%
19:00 +12°C° 0 mm 2 mps 751 mmHg 90%
20:00 +10°C° 0 mm 2 mps 751 mmHg 90%
21:00 +10°C° 0 mm 2 mps 751 mmHg 91%
22:00 +10°C° 0 mm 3 mps 751 mmHg 91%
23:00 +10°C° 0 mm 4 mps 751 mmHg 91%

18 August, Tuesday

Time Temperature Precipitation Wind Pressure Humidity
00:00 +8°C° 0 mm 4 mps 750 mmHg 91%
01:00 +9°C° 0 mm 5 mps 750 mmHg 90%
02:00 +9°C° 0 mm 6 mps 749 mmHg 89%
03:00 +9°C° 0 mm 7 mps 749 mmHg 88%
04:00 +9°C° 0.2 mm 7 mps 749 mmHg 88%
05:00 +9°C° 0.2 mm 7 mps 749 mmHg 88%
06:00 +9°C° 0.2 mm 6 mps 749 mmHg 88%
07:00 +9°C° 0.5 mm 6 mps 749 mmHg 88%
08:00 +10°C° 0.5 mm 6 mps 749 mmHg 87%
09:00 +10°C° 0.5 mm 6 mps 749 mmHg 86%
10:00 +10°C° 0.4 mm 7 mps 749 mmHg 84%
11:00 +11°C° 0.4 mm 7 mps 749 mmHg 83%
12:00 +11°C° 0.4 mm 8 mps 749 mmHg 81%
13:00 +11°C° 0.5 mm 7 mps 748 mmHg 81%
14:00 +11°C° 0.5 mm 7 mps 748 mmHg 82%
15:00 +11°C° 0.5 mm 7 mps 747 mmHg 82%
16:00 +10°C° 0.5 mm 7 mps 747 mmHg 84%
17:00 +10°C° 0.5 mm 7 mps 747 mmHg 85%
18:00 +10°C° 0.5 mm 7 mps 747 mmHg 87%
19:00 +10°C° 0.8 mm 8 mps 747 mmHg 88%
20:00 +10°C° 0.8 mm 9 mps 746 mmHg 89%
21:00 +10°C° 0.8 mm 9 mps 746 mmHg 91%
22:00 +10°C° 1.9 mm 9 mps 746 mmHg 88%
23:00 +10°C° 1.9 mm 9 mps 745 mmHg 86%
Show more